Powrót do katalogu

CZ-6A DEB

AktywnySSO
NORAD 55218·DEBRIS·🇨🇳 China

Wystrzelony Nov 11, 2022 z Taiyuan Satellite Launch Center

Loading…

Następne Przeloty (najbliższe 24 godziny)

TLE

ŚwieżeSource: Space-Track

Epoka: Sep 14, 2026, 11:21 UTC

1 55218U 22151WK  26257.47359534  .00001832  00000-0  89260-3 0  9996
2 55218  98.8266 261.5404 0049844  66.2306 294.4085 14.18729494197767

Śledź CZ-6A DEB w czasie rzeczywistym z AllMySat

Download on the App Store